Temp
26 26 26 26 27 27 27 27 27 27 27 27 27 27 27 27 27 27 27 27 26 26 26 26 26 25 25 25 25 26 26 25 25 25 25 25 25 25 25 25 25 26
26 26 26 26 27 27 27 27 27 27 27 27 27 27 27 27 27 27 27 27 26 26 26 26 26 25 25 25 25 25 25 25 25 25 25 25 25 25 25 25 25 25
26 26 26 26 26 27 27 27 27 27 27 27 27 27 27 27 27 27 28 27 27 26 26 26 26 26 25 25 25 25 25 25 25 25 25 25 25 25 25 25 25 25
26 26 26 26 27 27 27 27 27 27 27 27 27 27 28 28 27 27 27 28 27 27 26 26 26 26 25 25 25 25 25 25 25 25 25 25 25 25 25 25 25 25
26 26 27 27 27 27 27 27 27 27 27 27 27 27 28 28 28 28 27 27 27 27 26 26 26 26 25 25 25 25 25 25 25 25 25 25 25 25 25 25 25 25
27 27 27 27 27 27 27 27 27 28 27 27 27 27 28 28 28 28 28 27 27 27 27 26 26 26 26 25 25 25 25 25 25 25 25 25 25 25 25 25 25 25
27 27 27 27 27 27 27 27 27 28 28 28 28 28 28 28 28 28 28 27 27 27 27 27 26 26 26 25 25 25 25 25 25 25 25 25 25 25 25 25 25 25
27 27 27 27 27 27 27 27 27 28 28 28 28 28 28 28 28 28 28 28 27 27 27 27 27 26 26 26 25 25 25 25 25 25 25 25 25 25 25 25 25 25
27 27 27 27 27 27 28 28 28 28 28 28 28 28 28 28 28 28 28 28 28 27 27 27 27 27 26 26 26 25 25 25 25 26 25 25 25 25 25 25 25 25
28 28 27 27 28 28 28 28 28 28 28 28 28 28 28 28 28 28 28 28 28 27 27 27 27 27 27 26 26 26 25 25 26 26 26 25 25 25 25 25 25 25
28 28 28 28 28 28 28 29 29 28 28 28 28 28 28 28 28 28 28 28 28 28 27 27 27 27 27 27 26 26 26 25 26 26 26 26 26 25 25 25 25 25
28 29 28 28 28 29 29 29 29 29 29 28 28 28 29 29 28 28 28 28 28 28 28 27 27 27 27 27 27 26 26 26 26 26 26 26 26 26 25 25 25 25
29 29 29 29 29 29 29 30 30 30 29 29 28 28 29 29 29 28 28 28 28 28 28 27 27 27 27 27 27 27 26 26 26 26 26 26 26 26 26 25 25 25
30 29 30 29 29 30 30 30 30 30 30 30 29 29 29 29 29 29 28 28 28 27 27 27 27 27 27 27 27 27 26 26 26 26 26 26 26 26 26 25 25 25
30 30 30 30 30 30 30 30 30 30 30 30 30 29 29 29 30 30 29 28 28 28 27 27 27 27 27 27 27 27 26 26 26 26 26 26 26 26 26 26 25 25
30 30 30 30 30 30 30 30 30 31 31 31 30 30 30 29 30 30 30 29 28 28 27 27 27 27 27 27 27 27 27 27 27 26 26 26 26 26 26 26 26 26
30 30 30 30 30 30 30 30 30 31 31 31 31 30 30 30 30 30 30 30 29 28 28 27 27 27 27 27 27 27 27 27 27 27 26 26 26 26 26 26 26 26
31 30 30 30 30 30 30 30 30 30 31 31 31 31 31 30 30 30 30 30 30 29 28 28 27 27 27 27 27 27 27 27 27 27 27 26 26 26 26 26 26 26
31 30 30 30 30 30 30 30 30 30 30 31 31 31 31 30 30 30 30 30 30 30 29 28 28 28 27 27 27 27 27 27 27 27 27 27 26 27 27 27 26 26
31 30 30 30 30 29 29 30 29 30 30 30 30 30 30 30 30 30 30 30 30 30 29 29 28 28 28 27 27 27 27 27 27 27 27 27 27 27 27 27 27 27
31 30 30 30 30 29 29 29 29 29 29 30 30 30 30 30 30 30 30 29 30 30 30 29 29 28 28 28 27 27 27 27 27 27 27 27 27 27 27 27 27 27
31 30 30 30 30 29 29 29 29 29 29 29 30 30 30 30 30 30 30 29 29 29 30 30 29 29 29 28 28 27 27 27 27 27 27 27 27 27 27 27 27 27
31 31 30 30 30 29 29 29 29 29 29 29 29 30 30 30 30 30 29 29 29 29 29 29 30 30 29 29 28 28 27 27 27 26 27 27 27 27 27 27 27 27
31 31 30 30 30 29 29 29 29 29 29 29 29 29 30 29 29 29 29 29 29 29 29 29 29 29 29 29 29 28 27 27 26 26 26 26 27 27 27 27 27 27
31 31 30 30 29 29 29 29 29 29 29 29 29 29 29 29 29 29 29 29 29 29 29 29 29 29 29 29 29 28 28 27 26 26 26 26 26 27 27 27 27 27
31 31 30 30 29 29 29 29 29 29 28 28 28 29 29 29 29 29 29 29 29 29 29 29 29 29 29 29 29 29 28 27 26 25 25 26 26 26 26 27 27 27
Height
780 783 785 787 789 791 793 794 796 798 800 801 802 804 806 808 809 812 813 814 816 818 820 821 823 825 826 827 829 830 831 832 833 834 835 836 837 838 840 841 842 843
776 779 782 784 786 788 790 791 793 795 797 798 800 801 803 805 807 809 811 812 814 815 818 819 821 822 824 825 827 828 829 830 832 833 834 835 836 837 838 840 841 842
773 775 778 780 782 784 786 788 790 792 794 796 797 799 801 802 805 807 808 810 811 813 815 817 819 820 821 823 824 826 827 828 830 831 832 833 834 835 837 838 839 840
768 771 773 776 778 781 783 785 787 789 791 793 794 797 798 800 802 804 806 808 809 811 813 815 816 818 819 821 822 824 825 826 828 829 830 831 833 834 835 836 837 838
762 765 768 771 774 777 779 781 783 785 788 790 791 794 796 797 799 801 803 805 807 808 810 812 814 815 817 819 820 822 823 825 826 827 828 829 830 832 833 835 835 837
757 760 764 767 770 773 776 777 780 782 784 786 788 791 793 795 796 798 800 802 804 806 807 809 811 813 814 816 818 820 821 822 823 824 826 827 828 829 831 832 833 835
753 756 759 763 766 769 771 773 776 778 781 783 785 788 790 792 793 795 797 799 801 803 805 806 808 810 812 813 815 817 818 820 821 822 823 824 826 827 828 830 831 832
749 752 755 759 762 765 767 769 772 775 777 780 782 784 786 788 790 792 794 796 797 800 802 803 805 807 809 810 812 814 815 817 819 819 821 822 823 824 825 827 828 829
745 748 751 755 757 760 763 765 768 771 774 776 778 781 783 785 787 788 790 792 794 796 798 800 802 803 805 807 808 810 812 813 815 816 818 819 820 821 822 824 825 826
741 744 747 750 753 756 758 761 764 767 770 772 775 777 779 781 783 785 787 789 791 793 794 796 798 799 801 803 804 806 808 809 811 812 814 815 816 818 819 820 821 822
737 740 742 745 748 751 754 757 760 763 766 768 771 773 775 777 780 782 783 785 786 788 790 792 794 795 797 799 800 802 804 805 807 808 810 811 812 814 815 816 818 818
733 736 739 742 744 747 750 753 757 759 762 764 766 769 771 773 775 777 779 780 782 784 786 787 789 791 793 795 797 799 800 802 803 805 806 807 809 810 812 813 814 815
728 731 735 738 740 743 747 750 753 755 757 759 762 764 767 769 770 772 774 776 777 779 782 783 785 787 789 791 793 795 797 799 800 801 802 804 805 807 808 809 810 812
723 726 729 733 736 739 742 745 748 751 753 755 758 760 762 764 766 767 769 771 773 775 777 780 781 783 785 787 789 791 793 795 796 798 799 800 802 803 805 806 807 809
718 722 724 728 731 734 738 740 743 746 748 751 753 755 758 760 762 764 765 767 769 771 773 775 777 778 779 781 784 787 789 791 792 794 795 797 798 800 801 802 804 805
715 718 720 723 727 729 732 735 738 742 744 747 749 751 753 756 758 760 762 763 765 767 769 770 772 772 774 776 778 781 784 787 788 790 792 793 794 795 797 798 799 800
711 714 717 719 722 725 728 731 734 737 739 742 744 747 749 751 754 756 757 759 760 762 764 765 766 767 769 771 773 776 779 781 784 785 787 789 790 790 791 793 794 795
708 710 713 716 718 721 723 726 730 732 735 738 739 742 745 747 749 751 753 755 756 757 758 760 760 762 764 766 768 770 773 776 778 781 782 783 784 785 786 787 789 790
704 707 709 712 714 717 720 723 726 728 730 733 735 738 741 742 744 746 748 750 751 752 753 754 756 758 759 761 763 765 768 770 773 775 776 778 779 780 781 782 783 785
700 703 706 709 711 714 717 719 722 723 726 729 732 734 736 737 739 741 743 745 746 747 748 749 751 753 754 756 757 759 762 765 767 769 770 771 772 774 776 777 778 779
695 698 702 706 708 712 714 716 718 719 722 726 728 730 731 732 735 736 738 740 742 743 745 745 745 747 749 750 752 754 757 760 762 764 764 765 766 768 770 771 772 773
690 695 698 702 705 708 710 712 714 716 719 722 724 726 728 729 731 733 734 736 738 740 741 741 741 742 743 745 747 750 753 755 757 759 760 760 761 762 764 765 767 768
687 691 694 698 701 704 706 708 710 713 716 718 721 723 724 726 727 729 731 732 734 735 736 736 737 738 739 740 742 745 749 751 753 755 756 756 756 758 759 759 760 761
684 687 691 694 697 699 702 705 708 710 713 715 718 719 720 722 724 726 728 729 729 730 731 732 733 735 736 738 739 742 744 746 748 751 752 752 752 754 754 754 754 755
682 684 687 690 693 696 699 702 705 708 710 713 715 716 718 720 722 723 724 725 726 727 728 729 731 733 734 735 736 739 740 742 745 747 747 747 749 751 751 751 750 751
679 682 685 687 691 694 697 700 702 705 708 710 712 714 716 718 719 720 722 723 724 725 726 727 728 730 732 733 734 735 736 738 741 742 741 743 746 748 748 747 747 747
Wind_Speed
32 31 31 29 29 28 27 26 25 26 25 24 24 25 25 24 23 23 23 24 24 24 22 21 20 19 18 16 16 15 14 14 14 14 15 14 13 13 12 13 13 13
33 32 31 30 29 29 28 28 27 26 27 26 24 24 25 25 24 24 24 25 25 24 23 22 21 21 20 18 18 18 17 16 15 14 15 15 14 14 14 14 14 15
35 33 33 31 30 30 30 29 28 27 27 27 26 24 24 25 24 25 24 25 25 23 23 23 22 22 22 20 19 19 19 19 18 16 16 17 16 15 15 15 16 16
38 36 35 33 31 31 31 30 29 29 27 27 27 26 24 23 23 25 25 25 25 24 23 23 23 22 23 22 21 20 20 20 20 18 17 18 18 16 16 16 16 17
41 39 36 34 32 31 31 31 30 30 28 27 27 27 26 24 23 24 26 26 26 25 24 24 24 24 23 23 22 22 21 20 21 20 19 19 19 18 17 17 18 17
41 40 38 36 34 32 32 32 31 31 30 28 27 27 27 27 25 25 25 26 26 26 25 25 25 25 24 24 24 23 22 20 21 22 21 21 20 19 18 18 19 19
40 40 39 37 34 33 33 33 32 31 30 29 28 27 27 28 28 27 26 27 27 26 26 25 26 26 25 25 26 25 23 21 21 23 24 22 21 20 20 20 20 21
39 40 39 37 35 34 34 33 32 32 31 29 28 28 28 28 29 30 28 27 27 28 28 27 27 28 27 26 27 27 25 23 22 23 25 24 23 23 22 21 21 22
38 38 38 37 35 34 34 33 31 32 32 31 29 28 29 29 29 30 30 29 29 28 29 29 28 29 29 28 28 28 28 26 24 24 26 26 25 25 25 24 23 24
38 37 36 36 35 34 33 33 31 30 31 32 30 27 28 30 29 30 30 31 30 30 30 31 30 31 31 30 30 30 30 29 27 26 27 28 28 27 27 27 26 26
37 36 35 36 36 34 33 33 32 30 30 31 31 29 28 29 30 30 31 32 33 32 31 32 32 32 33 32 31 31 31 31 30 28 28 28 29 29 29 29 28 28
35 35 35 35 36 34 33 33 32 30 30 30 31 31 30 29 31 32 32 33 34 34 33 33 33 33 33 33 32 31 31 31 30 30 30 30 30 30 30 31 31 30
35 36 36 35 36 35 33 33 33 32 31 31 31 31 31 30 31 33 34 34 34 35 34 34 34 34 34 34 33 31 31 31 30 30 30 30 30 30 31 31 32 31
36 37 38 37 37 37 36 34 34 33 33 32 32 32 32 31 31 31 33 34 34 35 35 34 34 35 34 34 35 33 31 31 31 30 30 30 30 30 30 31 31 31
36 36 38 39 37 37 38 37 35 35 35 34 33 32 32 32 31 31 31 33 34 34 35 35 35 36 36 36 36 35 33 32 31 31 30 29 29 29 30 31 31 30
36 36 37 38 38 38 39 39 37 36 35 35 35 34 33 32 32 31 31 32 33 33 34 35 35 36 38 39 39 38 36 33 32 32 31 30 30 30 30 31 31 31
35 35 35 37 39 38 38 39 38 37 35 35 36 35 34 34 33 33 32 31 32 33 34 35 36 36 38 41 42 41 39 36 33 32 32 33 32 31 32 32 33 33
35 35 34 35 37 38 38 38 39 38 36 35 36 36 35 34 34 35 35 33 32 33 34 34 36 37 39 41 44 44 43 40 36 34 33 34 34 34 34 33 33 34
34 34 34 35 36 37 36 36 37 38 37 36 36 36 36 36 36 36 36 36 34 33 35 35 35 36 39 42 44 46 46 43 39 36 35 35 36 36 35 35 35 35
34 34 34 34 33 34 34 34 35 37 38 36 34 34 36 37 37 36 37 38 37 35 35 36 36 36 38 42 45 47 48 47 43 39 38 37 37 38 37 37 37 36
35 34 33 32 31 32 33 33 35 36 36 35 33 34 36 37 36 37 36 37 39 37 35 35 36 38 39 41 45 47 49 50 47 42 39 39 39 39 39 39 39 38
34 33 32 32 31 31 32 34 34 34 35 35 33 32 33 34 35 36 36 35 36 37 36 35 34 36 39 41 44 46 48 50 50 45 40 39 39 38 38 39 39 40
33 32 31 31 31 31 32 34 33 33 33 34 33 31 30 32 33 33 34 34 34 36 38 38 36 35 37 40 42 44 47 50 51 46 41 39 38 38 39 39 40 41
32 32 31 31 31 31 31 32 32 31 31 32 33 32 31 30 30 31 32 33 34 35 37 39 37 35 35 37 39 42 46 50 51 47 42 40 38 37 37 39 40 42
31 31 31 31 32 31 29 30 30 29 29 31 32 32 31 29 28 28 29 31 32 34 35 36 36 34 34 35 36 38 43 48 48 44 42 41 38 36 36 37 38 40
31 31 31 30 30 29 28 28 29 28 28 29 29 28 28 28 27 27 27 28 29 30 31 33 33 32 32 34 35 37 41 45 45 43 42 40 36 34 35 35 36 37
Wind_Direction
196 198 200 203 205 205 204 202 202 203 205 206 206 206 207 207 205 203 205 207 209 208 207 208 208 209 210 208 205 204 203 201 201 201 196 196 193 188 196 203 213 223
197 197 199 202 205 206 206 205 204 204 206 207 208 208 209 209 205 204 205 204 206 208 207 207 208 208 207 205 205 204 203 201 201 200 197 198 196 192 199 204 208 220
197 198 199 201 204 205 206 207 207 207 208 208 209 210 209 208 207 207 205 203 204 205 206 206 207 208 206 204 204 204 204 204 202 201 200 200 199 198 200 206 209 213
197 198 200 201 203 205 206 207 208 208 209 209 210 210 209 207 206 207 207 205 204 202 205 206 205 207 207 205 205 204 205 208 206 202 202 203 202 202 204 207 211 211
197 199 200 201 203 205 206 206 208 208 208 209 210 210 211 209 205 205 206 206 205 203 204 205 205 206 208 206 205 205 205 209 210 204 202 205 204 204 208 210 213 214
197 199 200 202 203 203 204 206 207 207 208 209 209 209 210 209 206 204 204 205 205 204 204 204 205 205 207 206 205 206 207 207 210 207 203 205 206 204 208 211 214 218
196 198 199 200 201 202 204 206 207 207 207 208 208 209 209 209 209 206 204 204 204 204 204 204 205 204 205 206 205 207 209 208 209 209 206 206 206 205 207 210 214 218
195 197 199 199 199 201 204 205 206 207 207 207 207 209 209 209 210 208 206 204 203 205 205 204 205 205 204 206 207 207 207 208 209 209 207 206 207 207 208 209 212 216
196 197 198 198 197 200 202 203 205 206 207 207 207 209 209 209 210 208 206 205 205 205 206 206 206 206 206 206 208 209 208 207 208 209 209 208 208 209 209 208 211 214
196 195 195 196 197 199 201 202 203 205 206 207 208 208 208 209 209 208 207 206 206 206 206 207 207 207 207 207 208 210 210 209 208 208 209 210 209 210 210 209 210 212
196 195 195 196 197 199 201 202 202 203 203 205 206 207 208 207 208 208 207 206 206 207 207 208 208 208 208 208 209 211 212 211 210 209 209 210 211 211 211 211 211 212
195 196 197 197 198 200 202 203 203 203 203 203 204 206 208 207 207 207 207 208 208 208 209 209 209 209 209 209 210 211 212 212 212 211 211 212 213 213 213 213 213 213
196 197 199 199 200 202 203 204 204 204 204 203 203 205 207 207 206 206 207 209 209 209 210 210 209 210 210 210 210 211 212 212 212 212 212 212 214 214 215 216 215 215
197 198 200 202 203 204 204 204 205 206 206 205 204 204 207 208 208 206 206 208 210 210 210 211 210 209 210 210 210 211 212 212 212 212 212 213 214 215 216 217 218 218
198 199 200 203 203 204 204 205 206 207 207 207 206 205 207 210 211 210 207 207 209 210 210 211 212 211 210 210 210 210 212 213 212 213 213 213 213 215 216 217 218 218
198 200 201 202 203 204 205 205 206 207 208 208 208 207 208 210 212 214 212 208 207 209 210 211 213 213 212 211 210 210 211 213 213 214 214 214 214 214 215 216 217 218
198 200 201 201 203 204 204 205 206 207 208 209 209 209 209 209 210 213 215 212 208 208 210 211 213 215 214 213 212 212 211 212 214 214 214 216 216 215 215 216 217 218
198 199 201 202 203 204 204 205 205 206 208 209 209 210 210 209 210 211 215 216 212 208 209 212 215 216 216 214 214 213 213 212 214 215 215 216 217 218 218 218 218 219
197 199 201 203 203 204 204 204 205 206 208 209 209 209 209 209 210 211 213 216 216 212 210 213 216 216 216 216 215 215 214 213 213 215 216 218 219 220 220 220 220 220
196 198 202 204 204 204 204 204 205 207 208 209 208 208 209 210 211 211 212 214 217 217 214 214 216 217 217 217 216 216 216 215 214 215 217 219 221 221 221 222 222 221
194 197 201 204 204 203 203 204 205 207 207 207 208 209 210 211 211 212 213 214 216 218 219 219 218 218 218 218 218 218 217 216 216 216 218 220 222 222 222 223 223 223
193 195 199 202 204 203 204 205 206 206 206 206 208 210 212 213 213 214 215 216 216 218 222 224 222 220 220 220 220 220 218 217 217 217 219 221 222 222 223 224 225 225
192 194 197 200 202 203 205 206 206 206 205 206 207 210 213 213 215 216 217 218 218 218 221 225 226 224 223 223 222 220 218 217 217 218 221 224 224 223 223 224 225 226
193 195 197 199 202 204 207 207 207 207 206 206 208 212 215 215 216 218 219 220 221 221 222 226 228 228 229 228 226 222 219 218 217 217 221 226 227 226 226 226 227 227
195 195 197 200 202 204 206 206 206 207 208 208 211 213 216 217 217 219 221 222 223 224 226 228 229 230 233 233 231 227 222 219 217 217 221 226 228 228 230 230 230 230
197 197 199 201 203 204 205 206 206 207 208 209 211 213 216 218 218 220 222 224 225 227 228 230 231 231 233 236 236 233 227 220 216 217 221 225 227 229 231 234 234 234